Location: Atherton
(17.2661°S, 145.4859°E)
Time: 00:22:40
(UTC+10:00)

Vanguard 1 - Pass Details

Date: 27 June 2025
Orbit: 649 x 3822 km, 34.2° (Epoch: 17 July)

Event Time Altitude Azimuth Distance (km) Brightness Sun altitude
Rises 21:44:44 0° 253° (WSW) 6,301 14.6 -52.9°
Reaches altitude 10° 21:50:36 10° 241° (WSW) 4,666 13.7 -54.3°
Enters shadow 21:54:45 18° 227° (SW) 3,556 13.0 -55.2°
Maximum altitude 21:59:45 25° 190° (S) 2,590 - -56.4°
Drops below altitude 10° 22:05:38 10° 135° (SE) 2,905 - -57.7°
Sets 22:08:19 0° 120° (ESE) 3,569 - -58.3°
